Weather History for KFLG - April, 2013

Change the Weather History Date:

Saturday, April 6, 2013

  Actual Average Record
Temperature  
Mean Temperature 50 °F 41 °F  
Max Temperature 65 °F 55 °F 75 °F (1989)
Min Temperature 34 °F 26 °F 4 °F (1922)
Degree Days  
Heating Degree Days 15 24  
Month to date heating degree days 120 148  
Since 1 July heating degree days 5756 5855  
Cooling Degree Days 0 0  
Month to date cooling degree days 0 0  
Year to date cooling degree days 0 0  
Moisture  
Dew Point 25 °F    
Average Humidity 45    
Maximum Humidity 70    
Minimum Humidity 20    
Precipitation  
Precipitation 0.00 in 0.05 in 0.41 in (2002)
Month to date precipitation 0.00 0.29  
Year to date precipitation 4.88 6.62  
Snow  
Snow 0.00 in 0.30 in 7.20 in (2001)
Month to date snowfall 0.0 1.9  
Since 1 July snowfall 68.3 95.8  
Snow Depth 0.00 in    
Sea Level Pressure  
Sea Level Pressure 29.89 in    
Wind  
Wind Speed 7 mph (WSW)    
Max Wind Speed 25 mph    
Max Gust Speed 30 mph    
Visibility 10 miles    
Events      
T = Trace of Precipitation, MM = Missing Value Source: NWS Daily Summary

Daily Weather History Graph

Daily Weather History Graph

Search for Another Location

Airport or City:

Trip Planner

Search our weather history database for the weather conditions in past years. The results will help you decide how hot, cold, wet, or windy it might be!

Date:

Astronomy

Apr. 06, 2013 Rise Set
Actual Time 6:06 AM MST 6:52 PM MST
Civil Twilight 5:40 AM MST 7:18 PM MST
Nautical Twilight 5:10 AM MST 7:48 PM MST
Astronomical Twilight 4:38 AM MST 8:19 PM MST
Moon 3:44 AM MST (4/6) 3:31 PM MST (4/6)
Length of Visible Light 13h 37m
Length of Day
12h 46m
Waning Crescent, 14% of the Moon is Illuminated
Apr 6
Waning Crescent
Apr 10
New
Apr 18
First Quarter
Apr 25
Full
May 2
Last Quarter

Hourly Weather History & Observations

Time (MST) Temp. Windchill Dew Point Humidity Pressure Visibility Wind Dir Wind Speed Gust Speed Precip Events Conditions
12:57 AM 41.0 °F 39.0 °F 24.1 °F 51% 29.89 in 10.0 mi WSW 3.5 mph - N/A   Clear
1:57 AM 37.9 °F - 24.1 °F 57% 29.88 in 10.0 mi Calm Calm - N/A   Clear
2:57 AM 42.1 °F 38.4 °F 26.1 °F 53% 29.86 in 10.0 mi West 5.8 mph - N/A   Clear
3:57 AM 41.0 °F 38.0 °F 26.1 °F 55% 29.88 in 10.0 mi WSW 4.6 mph - N/A   Clear
4:57 AM 39.0 °F 35.7 °F 26.1 °F 60% 29.89 in 10.0 mi West 4.6 mph - N/A   Clear
5:57 AM 36.0 °F 31.1 °F 26.1 °F 67% 29.94 in 10.0 mi West 5.8 mph - N/A   Clear
6:57 AM 39.0 °F 35.7 °F 28.0 °F 65% 29.96 in 10.0 mi SW 4.6 mph - N/A   Clear
7:57 AM 50.0 °F - 28.0 °F 43% 29.94 in 10.0 mi WSW 6.9 mph - N/A   Clear
8:57 AM 54.0 °F - 28.0 °F 37% 29.92 in 10.0 mi WSW 9.2 mph 17.3 mph N/A   Clear
9:57 AM 55.9 °F - 25.0 °F 30% 29.93 in 10.0 mi Variable 4.6 mph - N/A   Clear
10:57 AM 59.0 °F - 23.0 °F 25% 29.92 in 10.0 mi NNW 8.1 mph - N/A   Clear
11:57 AM 61.0 °F - 26.1 °F 26% 29.92 in 10.0 mi SSW 9.2 mph 21.9 mph N/A   Partly Cloudy
12:57 PM 61.0 °F - 27.0 °F 27% 29.89 in 10.0 mi SSW 10.4 mph 27.6 mph N/A   Partly Cloudy
1:57 PM 63.0 °F - 24.1 °F 23% 29.87 in 10.0 mi WSW 12.7 mph 19.6 mph N/A   Clear
2:57 PM 64.9 °F - 23.0 °F 20% 29.84 in 10.0 mi SW 12.7 mph 24.2 mph N/A   Clear
3:57 PM 63.0 °F - 23.0 °F 22% 29.84 in 10.0 mi WSW 13.8 mph 21.9 mph N/A   Clear
4:57 PM 61.0 °F - 26.1 °F 26% 29.85 in 10.0 mi SW 15.0 mph 23.0 mph N/A   Clear
5:57 PM 57.9 °F - 26.1 °F 30% 29.87 in 10.0 mi SSW 18.4 mph - N/A   Clear
6:57 PM 53.1 °F - 25.0 °F 34% 29.89 in 10.0 mi SW 9.2 mph - N/A   Clear
7:57 PM 52.0 °F - 24.1 °F 34% 29.88 in 10.0 mi WSW 8.1 mph - N/A   Clear
8:57 PM 46.9 °F - 24.1 °F 41% 29.89 in 10.0 mi Calm Calm - N/A   Clear
9:57 PM 43.0 °F - 24.1 °F 47% 29.90 in 10.0 mi Calm Calm - N/A   Clear
10:57 PM 37.0 °F - 24.1 °F 59% 29.92 in 10.0 mi Calm Calm - N/A   Clear
11:57 PM 39.0 °F 36.8 °F 25.0 °F 57% 29.88 in 10.0 mi WSW 3.5 mph - N/A   Clear